Dothan, AL

1:46 PM CDT on May 25, 2017 (GMT -0500)
Dothan Regional

Weather History for KDHN - June, 2013

Change the Weather History Date:

Monday, June 17, 2013

  Actual Average Record
Temperature  
Mean Temperature 83 °F 80 °F  
Max Temperature 90 °F 90 °F 100 °F (1944)
Min Temperature 75 °F 70 °F 62 °F (1961)
Cooling Degree Days 15 15  
Month to date cooling degree days 238  
Year to date cooling degree days 651  
Since 1 June cooling degree days 238  
Growing Degree Days 30 (Base 50)    
Moisture  
Dew Point 73 °F    
Average Humidity 84    
Maximum Humidity 97    
Minimum Humidity 55    
Precipitation  
Precipitation 0.46 in 0.21 in 2.46 in (2004)
Month to date precipitation 1.34 3.25  
Year to date precipitation 14.23 25.61  
Sea Level Pressure  
Sea Level Pressure 30.04 in    
Wind  
Wind Speed 5 mph (SSW)    
Max Wind Speed 10 mph    
Max Gust Speed -    
Visibility 8 miles    
Events Rain , Thunderstorm    
T = Trace of Precipitation, MM = Missing Value Source: NWS Daily Summary

Daily Weather History Graph

Daily Weather History Graph

Search for Another Location

Airport or City:

Trip Planner

Search our weather history database for the weather conditions in past years. The results will help you decide how hot, cold, wet, or windy it might be!

Date:

Astronomy

Jun. 17, 2013 Rise Set
Actual Time 5:37 AM CDT 7:48 PM CDT
Civil Twilight 5:09 AM CDT 8:16 PM CDT
Nautical Twilight 4:35 AM CDT 8:50 PM CDT
Astronomical Twilight 3:58 AM CDT 9:27 PM CDT
Moon 1:44 PM CDT (6/17) 12:51 AM CDT (6/17)
Length of Visible Light 15h 07m
Length of Day
14h 11m
First Quarter, 60% of the Moon is Illuminated
Jun 17
First Quarter
Jun 23
Full
Jun 29
Last Quarter
Jul 8
New
Jul 15
First Quarter

Hourly Weather History & Observations

Time (CDT) Temp. Heat Index Dew Point Humidity Pressure Visibility Wind Dir Wind Speed Gust Speed Precip Events Conditions
12:53 AM 77.0 °F - 73.9 °F 90% 30.06 in 10.0 mi SSW 3.5 mph - N/A   Mostly Cloudy
1:53 AM 75.9 °F - 73.9 °F 94% 30.05 in 8.0 mi Calm Calm - N/A   Scattered Clouds
2:53 AM 75.0 °F - 73.9 °F 96% 30.05 in 6.0 mi South 4.6 mph - N/A   Scattered Clouds
3:02 AM 75.2 °F - 73.4 °F 94% 30.06 in 7.0 mi South 4.6 mph - N/A   Mostly Cloudy
3:53 AM 75.0 °F - 73.9 °F 96% 30.05 in 6.0 mi South 4.6 mph - N/A   Overcast
4:53 AM 75.9 °F - 73.9 °F 94% 30.06 in 7.0 mi South 4.6 mph - N/A   Overcast
5:53 AM 75.9 °F - 73.9 °F 94% 30.06 in 5.0 mi Calm Calm - N/A   Overcast
6:53 AM 75.9 °F - 73.9 °F 94% 30.07 in 5.0 mi SSE 6.9 mph - N/A   Overcast
10:50 AM 87.8 °F 92.6 °F 69.8 °F 55% 30.07 in 10.0 mi SSW 8.1 mph - N/A   Scattered Clouds
10:53 AM 87.1 °F 92.0 °F 70.0 °F 57% 30.04 in 10.0 mi SSW 10.4 mph - N/A   Scattered Clouds
12:53 PM 78.1 °F - 73.9 °F 87% 30.06 in 10.0 mi SE 10.4 mph - 0.17 in Rain Light Rain
1:53 PM 86.0 °F 93.8 °F 73.9 °F 67% 30.02 in 10.0 mi South 10.4 mph - 0.00 in   Clear
2:22 PM 78.8 °F - 73.4 °F 83% 30.03 in 2.5 mi SSW 4.6 mph - 0.16 in Rain Light Rain
2:29 PM 80.6 °F 85.4 °F 73.4 °F 79% 30.04 in 10.0 mi SSE 8.1 mph - 0.16 in Rain Light Rain
3:58 PM 78.8 °F - 73.4 °F 83% 30.02 in 1.8 mi West 3.5 mph - 0.00 in Rain , Thunderstorm Light Thunderstorms and Rain
4:00 PM 78.8 °F - 73.4 °F 83% 30.02 in 10.0 mi West 4.6 mph - 0.00 in Rain , Thunderstorm Light Thunderstorms and Rain
4:05 PM 80.6 °F 85.4 °F 73.4 °F 79% 30.01 in 10.0 mi WSW 4.6 mph - 0.00 in Rain , Thunderstorm Light Thunderstorms and Rain
4:21 PM 80.6 °F 86.2 °F 75.2 °F 84% 30.02 in 10.0 mi WSW 5.8 mph - 0.00 in   Scattered Clouds
4:53 PM 82.0 °F 88.6 °F 75.0 °F 79% 30.00 in 10.0 mi SW 4.6 mph - 0.00 in   Clear
5:53 PM 84.9 °F 92.1 °F 73.9 °F 69% 29.99 in 10.0 mi WSW 9.2 mph - N/A   Scattered Clouds
6:53 PM 82.9 °F 88.0 °F 72.0 °F 69% 30.01 in 10.0 mi SSW 8.1 mph - N/A   Mostly Cloudy
7:39 PM 80.6 °F 84.6 °F 71.6 °F 74% 30.03 in 10.0 mi SSW 4.6 mph - N/A Thunderstorm Partly Cloudy
7:53 PM 81.0 °F 85.2 °F 72.0 °F 74% 30.03 in 10.0 mi Calm Calm - N/A Thunderstorm Scattered Clouds
8:21 PM 75.2 °F - 71.6 °F 89% 30.05 in 1.8 mi NNW 5.8 mph - 0.19 in Rain , Thunderstorm Heavy Thunderstorms and Rain
8:38 PM 73.4 °F - 71.6 °F 94% 30.03 in 3.0 mi SSE 8.1 mph - 0.42 in Rain , Thunderstorm Thunderstorms and Rain
8:53 PM 73.9 °F - 73.0 °F 97% 30.03 in 9.0 mi SW 8.1 mph - 0.43 in Rain , Thunderstorm Light Thunderstorms and Rain
9:18 PM 75.2 °F - 73.4 °F 94% 30.05 in 10.0 mi SW 6.9 mph - 0.01 in Rain Light Rain
9:53 PM 73.9 °F - 71.1 °F 91% 30.02 in 10.0 mi SW 8.1 mph - 0.01 in   Partly Cloudy
10:53 PM 73.0 °F - 70.0 °F 90% 30.03 in 10.0 mi SW 4.6 mph - N/A   Clear
11:53 PM 73.0 °F - 70.0 °F 90% 30.01 in 10.0 mi SSW 3.5 mph - N/A   Scattered Clouds